sat.trackr.live / text

‹ back to catalog

ACS3

NORAD 59588 · 2024-077B

PAYLOAD ACTIVE UNKNOWN

§ Identity

Operator
Country
US
Launch date
2024-04-23
Launch site
RLLB
Launch vehicle
Mass (kg)
RCS (m²)

External: N2YO · Heavens-Above · Gunter

§ Orbital elements

Epoch: 2026-05-23T05:14:10.266432Z

Period
103.40 min
Inclination
97.1747°
Eccentricity
0.0022165
Mean motion
13.92695105 rev/d
Perigee alt
903.0 km
Apogee alt
935.4 km
Semi-major
7,297.3 km
B*
2.3650e-3
RAAN
67.5928°
Arg perigee
22.8878°
Mean anomaly
337.3271°
Rev number
10,456

§ Raw data

ACS31 59588U 24077B   26143.21817438  .00003034  00000+0  23650-2 0  99922 59588  97.1747  67.5928 0022165  22.8878 337.3271 13.92695105104563

JSON: /api/v1/satellites/59588 · /tle

For live sub-satellite position, see the globe view (requires WebGL).

§ Visibility from observer

Set your observer location to see the next 7 days of passes ≥ 10°. The values pass through the URL so the page stays shareable.

No JS? Fill the form by hand. The geolocation button needs JavaScript.

§ Radio — SatNOGS DB

ModeDescriptionDownlinkUplink
FM Mode S - NanoAvionics 2.268 GHz
GMSK Mode U - NanoAvionics 401.500 MHz

2 transmitters · refreshed weekly from db.satnogs.org